User: anonymous   Login
Location: Baili�vre
(50.0696°N, 4.2409°E)
Time: 19:05:22
(UTC+00:00)
Language:

Cosmos 2242 Rocket - Orbit

View from above orbital plane
View from above orbital plane
View from above satellite
View from above satellite

Ground track
Ground track

The orbit data is extracted from the following two-line orbital elements,

1 22627U 93024B   20295.82827260  .00000098  00000-0  10336-4 0  9994
2 22627  82.5250  44.6690 0022081 294.5865  65.3046 14.78182958482757
Epoch (UTC): 21 October 2020 19:52:42
Eccentricity: 0.0022081
inclination: 82.5250°
perigee height: 619 km
apogee height: 650 km
right ascension of ascending node: 44.6690°
argument of perigee: 294.5865°
revolutions per day: 14.78182958
mean anomaly at epoch: 65.3046°
orbit number at epoch: 48275

The dashed part of the orbit path shows where the satellite is in the earth's shadow,  

DLR